Location: Brotuna
(46.2000°N, 22.6000°E)
Time: 23:23:02
(UTC+00:00)

STARLINK-1192 - Pass Details

Date: 09 April 2020
Orbit: 549 x 550 km, 53.0° (Epoch: 03 June)

Event Time Altitude Azimuth Distance (km) Brightness Sun altitude
Rises 18:07:37 0° 298° (WNW) 2,728 9.4 -10.4°
Reaches altitude 10° 18:09:57 10° 305° (NW) 1,832 7.8 -10.8°
Maximum altitude 18:13:56 43° 18° (NNE) 781 4.4 -11.4°
Enters shadow 18:17:09 15° 87° (E) 1,550 5.4 -11.9°
